Stations météo

réclame
Mon MeteoGroup
Dax, France (7603): Température de l'air & dewpoint: 11.01.2018 02:00:00 - 17.01.2018 02:00:00 (CET)Dax, France (7603): Température de l'air 5cm: 11.01.2018 02:00:00 - 17.01.2018 02:00:00 (CET)Dax, France (7603): Température de l'air -20cm & Température de l'air -100cm: 11.01.2018 02:00:00 - 17.01.2018 02:00:00 (CET)Dax, France (7603): Vitesse du vent & gusts: 11.01.2018 02:00:00 - 17.01.2018 02:00:00 (CET)Dax, France (7603): Direction du vent: 11.01.2018 02:00:00 - 17.01.2018 02:00:00 (CET)Dax, France (7603): reduced air pressure: 11.01.2018 02:00:00 - 17.01.2018 02:00:00 (CET)Dax, France (7603): visibility: 11.01.2018 02:00:00 - 17.01.2018 02:00:00 (CET)Dax, France (7603): Ensoleillement: 11.01.2018 02:00:00 - 17.01.2018 02:00:00 (CET)Dax, France (7603): Quantités de précipitations: 11.01.2018 02:00:00 - 17.01.2018 02:00:00 (CET)
Date & Time tt [°C] td [°C] tt 5cm [°C] tt -20cm [°C] tt -100cm [°C] ff [km/h] ff [knt] fx [km/h] fx [knt] dd ppp [hPa] vv [km] sd [min] rr [mm]
17.01.2018 02:00:00 - - - - - - - - - - - - - -
17.01.2018 01:00:00 12,3 10,0 11,5 10,3 10,8 39 21 76 41 W 1021,0 9 0 0,8
17.01.2018 00:00:00 13,4 10,9 12,1 10,3 10,9 26 14 60 32 W 1020,6 7 0 0,0
16.01.2018 23:00:00 13,0 11,4 12,1 10,2 10,9 24 13 53 29 W 1020,5 2,5 0 0,6
16.01.2018 22:00:00 12,9 11,6 12,3 10,2 10,8 22 12 55 30 W 1020,7 2,4 0 1,0
16.01.2018 21:00:00 13,7 11,2 12,4 10,1 10,9 22 12 51 28 W 1020,5 5 0 0,2
16.01.2018 20:00:00 14,1 10,7 12,9 10,1 10,8 18 10 48 26 W 1020,4 12 0 0,0
16.01.2018 19:00:00 13,9 10,7 13,0 10,0 10,8 18 10 43 23 W 1020,5 9 0 0,0
16.01.2018 18:00:00 13,9 10,9 12,5 10,0 10,9 22 12 42 23 W 1020,5 10 0 0,0
16.01.2018 17:00:00 13,2 11,3 12,1 9,9 10,9 16 9 37 20 W 1020,6 6 0 0,0
16.01.2018 16:00:00 12,6 11,7 12,1 9,9 10,9 18 10 40 21 WSW 1021,2 4,0 0 0,2
16.01.2018 15:00:00 12,4 11,6 12,0 9,8 10,9 18 10 34 18 WSW 1021,7 1,5 0 0,4
16.01.2018 14:00:00 12,2 11,4 11,9 9,8 10,9 17 9 37 20 WSW 1022,3 1,6 0 0,8
16.01.2018 13:00:00 12,7 11,8 12,2 9,7 10,9 18 10 48 26 W 1023,1 1,3 0 0,8
16.01.2018 12:00:00 13,0 11,6 12,2 9,6 10,9 18 10 41 22 W 1023,5 4,5 0 0,2
16.01.2018 11:00:00 13,1 11,3 12,0 9,5 10,9 24 13 59 32 W 1023,3 4,5 0 0,2
16.01.2018 10:00:00 12,9 11,3 11,9 9,5 10,9 24 13 49 26 W 1022,7 6 0 0,0
16.01.2018 09:00:00 12,5 11,4 11,8 9,5 10,9 21 11 54 29 W 1022,1 2,5 0 0,2
16.01.2018 08:00:00 12,8 10,9 11,9 9,4 10,9 21 11 57 31 W 1021,2 4,0 0 0,2
16.01.2018 07:00:00 12,4 11,6 11,1 9,4 10,9 18 10 45 25 W 1020,5 2,0 0 2,7
16.01.2018 06:00:00 11,5 10,9 10,8 9,3 10,9 18 10 40 21 SW 1020,3 2,6 0 1,6
16.01.2018 05:00:00 11,3 10,4 10,5 9,3 10,9 16 9 42 23 W 1020,1 6 0 0,2
16.01.2018 04:00:00 11,0 10,2 10,2 9,3 10,9 23 13 39 21 WSW 1020,5 6 0 1,0
16.01.2018 03:00:00 10,6 9,8 10,2 9,2 10,9 18 10 35 19 SW 1020,2 1,6 0 1,2
16.01.2018 02:00:00 11,0 9,9 10,3 9,2 10,9 22 12 40 22 SW 1020,3 1,7 0 0,8
16.01.2018 01:00:00 11,1 9,4 9,4 9,2 10,9 16 9 35 19 WSW 1020,6 10 0 0,2
16.01.2018 00:00:00 10,5 8,1 9,1 9,2 10,9 18 10 33 18 SW 1020,7 8 0 0,2
15.01.2018 23:00:00 10,1 7,5 8,5 9,2 10,9 18 10 34 18 SW 1020,8 10 0 0,0
15.01.2018 22:00:00 10,5 5,7 9,0 9,2 10,9 18 10 54 29 SW 1020,5 10 0 0,0
15.01.2018 21:00:00 11,6 3,9 11,1 9,2 10,9 21 11 41 22 SW 1020,3 10 0 0,0
15.01.2018 20:00:00 11,8 3,5 11,0 9,1 10,9 22 12 51 27 WSW 1020,6 10 0 0,0
15.01.2018 19:00:00 11,6 2,9 9,9 9,1 10,9 13 7 31 17 WSW 1020,3 35 0 0,0
15.01.2018 18:00:00 11,7 4,4 10,1 9,0 10,9 15 8 27 15 WSW 1020,2 10 0 0,0
15.01.2018 17:00:00 11,8 5,4 11,6 9,0 11,0 13 7 20 11 SSW 1020,1 10 0 0,0
15.01.2018 16:00:00 11,9 5,3 12,0 8,8 10,9 11 6 23 12 SW 1020,6 10 0 0,0
15.01.2018 15:00:00 12,3 6,1 12,3 8,7 10,9 13 7 32 17 SW 1020,6 10 0 0,0
15.01.2018 14:00:00 11,9 5,5 12,3 8,7 11,0 16 9 35 19 WSW 1021,9 27 1 0,0
15.01.2018 13:00:00 12,6 7,5 - - - 18 10 31 17 WSW 1022,4 10 - -
15.01.2018 12:00:00 11,0 7,3 10,2 8,5 11,0 16 9 29 15 SSW 1023,3 10 32 0,0
15.01.2018 11:00:00 9,3 6,7 8,0 8,5 11,0 13 7 23 12 SSW 1024,4 10 0 0,0
15.01.2018 10:00:00 8,2 6,8 7,1 8,5 11,0 11 6 19 11 SSW 1024,1 10 0 0,0
15.01.2018 09:00:00 7,7 6,6 6,9 8,5 11,0 13 7 26 14 SSW 1023,7 22 0 0,2
15.01.2018 08:00:00 7,4 6,3 6,9 8,5 11,0 15 8 22 12 SSW 1023,0 10 0 0,0
15.01.2018 07:00:00 7,4 6,7 6,1 8,5 11,0 11 6 22 12 SSW 1022,8 8 0 0,4
15.01.2018 06:00:00 6,9 6,0 5,8 8,5 11,0 15 8 23 12 SSW 1022,5 21 0 0,0
15.01.2018 05:00:00 7,2 6,3 5,6 8,6 11,0 15 8 23 12 SSW 1022,6 10 0 0,0
15.01.2018 04:00:00 6,7 6,1 5,8 8,6 11,0 11 6 17 9 S 1022,5 15 0 0,0
15.01.2018 03:00:00 7,2 6,3 6,7 8,6 11,0 11 6 22 12 S 1022,4 9 0 1,6
15.01.2018 02:00:00 7,0 6,3 5,8 8,6 11,0 11 6 19 10 SSW 1022,4 10 0 0,0
15.01.2018 01:00:00 6,2 5,9 3,6 8,7 11,0 9 5 14 7 S 1022,4 7 0 0,0
15.01.2018 00:00:00 6,0 5,4 4,7 8,7 11,0 4 2 13 7 S 1022,4 7 0 0,0
14.01.2018 23:00:00 6,9 6,0 6,4 8,7 11,0 8 4 16 9 SSW 1021,4 10 0 0,0
14.01.2018 22:00:00 7,5 6,4 7,1 8,7 11,1 13 7 22 12 SSW 1020,9 10 0 0,0
14.01.2018 21:00:00 7,6 6,4 7,3 8,7 11,1 15 8 23 13 SSW 1020,4 32 0 0,0
14.01.2018 20:00:00 7,6 6,2 7,4 8,7 11,1 15 8 24 13 SSW 1019,7 10 0 0,0
14.01.2018 19:00:00 7,7 6,5 7,2 8,6 11,1 16 9 24 13 SSW 1018,8 10 0 0,0
14.01.2018 18:00:00 8,1 6,7 7,5 8,6 11,0 11 6 22 12 SSW 1018,2 10 0 0,0
14.01.2018 17:00:00 8,4 7,8 8,1 8,5 11,1 9 5 14 8 SSW 1017,5 7 0 0,2
14.01.2018 16:00:00 8,5 7,3 8,1 8,5 11,1 0 0 9 5 N 1017,2 3,2 0 1,0
14.01.2018 15:00:00 8,7 7,5 7,9 8,4 11,1 5 3 17 9 SSW 1016,5 10 0 0,0
14.01.2018 14:00:00 8,2 7,1 7,5 8,4 11,1 11 6 19 10 S 1016,3 10 0 0,6
14.01.2018 13:00:00 7,5 6,6 6,9 8,4 11,1 13 7 22 12 SSE 1016,4 4,6 0 1,8
14.01.2018 12:00:00 7,2 6,1 6,6 8,4 11,1 15 8 24 13 S 1016,9 4,0 0 3,5
14.01.2018 11:00:00 6,8 6,2 6,4 8,4 11,1 15 8 26 14 S 1016,8 1,2 0 6,4
14.01.2018 10:00:00 6,9 6,2 6,4 8,5 11,1 15 8 22 12 SSW 1016,4 2,3 0 5,3
14.01.2018 09:00:00 6,8 6,1 5,9 8,5 11,1 11 6 19 10 WSW 1015,9 1,4 0 2,0
14.01.2018 08:00:00 6,2 5,6 5,6 8,5 11,1 9 5 19 10 SSW 1015,2 10 0 0,0
14.01.2018 07:00:00 6,0 5,1 5,6 8,6 11,1 11 6 24 13 SSE 1014,8 10 0 1,8
14.01.2018 06:00:00 6,4 5,3 5,8 8,6 11,1 5 3 26 14 SE 1015,3 2,0 0 5,9
14.01.2018 05:00:00 6,3 5,3 5,8 8,6 11,1 15 8 26 14 S 1014,7 5 0 2,0
14.01.2018 04:00:00 6,4 5,3 5,9 8,6 11,1 13 7 21 11 S 1014,9 10 0 0,8
14.01.2018 03:00:00 6,5 5,3 6,0 8,6 11,1 11 6 20 11 S 1015,2 4,4 0 1,4
14.01.2018 02:00:00 6,8 5,7 6,2 8,6 11,1 8 4 18 10 SSW 1015,2 7 0 0,2
14.01.2018 01:00:00 6,9 5,5 6,2 8,6 11,1 9 5 14 8 SSW 1015,6 8 0 0,4
14.01.2018 00:00:00 7,1 5,2 5,4 8,7 11,1 9 5 14 8 WSW 1015,8 7 0 0,8
13.01.2018 23:00:00 5,8 4,6 5,2 8,7 11,1 0 0 10 5 N 1015,6 6 0 0,0
13.01.2018 22:00:00 5,4 4,0 5,1 8,7 11,2 5 3 7 4 SE 1015,4 4,8 0 0,0
13.01.2018 21:00:00 5,6 4,1 4,5 8,7 11,1 2 1 4 2 SSE 1015,4 8 0 0,0
13.01.2018 20:00:00 5,5 3,7 4,1 8,7 11,2 2 1 8 4 - 1014,9 8 0 0,0
13.01.2018 19:00:00 6,5 4,0 5,5 8,7 11,2 2 1 7 4 - 1014,5 10 0 0,0
13.01.2018 18:00:00 6,7 4,0 6,2 8,7 11,2 5 3 8 4 ESE 1014,2 10 0 0,0
13.01.2018 17:00:00 7,4 4,0 7,1 8,6 11,2 5 3 9 5 ENE 1013,9 25 0 0,0
13.01.2018 16:00:00 7,7 4,1 7,8 8,5 11,2 4 2 10 5 ESE 1014,0 10 0 0,0
13.01.2018 15:00:00 8,0 3,8 8,8 8,5 11,2 5 3 10 5 - 1014,0 10 0 0,0
13.01.2018 14:00:00 8,0 3,1 7,8 8,4 11,2 4 2 11 6 - 1014,3 10 9 0,0
13.01.2018 13:00:00 7,3 3,2 7,6 8,4 11,2 7 4 12 6 E 1014,5 24 2 0,0
13.01.2018 12:00:00 6,7 2,8 6,9 8,4 11,2 5 3 13 7 E 1015,4 10 0 0,0
13.01.2018 11:00:00 6,2 2,6 5,0 8,4 11,2 9 5 15 8 E 1015,6 10 29 0,0
13.01.2018 10:00:00 4,7 2,2 3,5 8,5 11,2 7 4 12 6 E 1015,7 16 18 0,0
13.01.2018 09:00:00 3,7 1,9 2,8 8,5 11,2 5 3 10 5 E 1015,8 10 0 0,0
13.01.2018 08:00:00 4,1 2,1 3,7 8,5 11,3 9 5 20 11 E 1015,6 10 0 0,0
13.01.2018 07:00:00 3,9 2,3 3,5 8,5 11,2 11 6 19 11 E 1016,0 10 0 0,0
13.01.2018 06:00:00 3,9 2,4 3,6 8,6 11,3 11 6 17 9 E 1016,5 10 0 0,0
13.01.2018 05:00:00 3,9 2,7 3,6 8,7 11,3 9 5 17 9 E 1017,2 10 0 0,0
13.01.2018 04:00:00 3,8 3,1 3,3 8,7 11,3 11 6 18 10 E 1018,1 9 0 0,0
13.01.2018 03:00:00 4,0 3,1 3,0 8,8 11,3 13 7 19 11 E 1018,9 10 0 0,0
13.01.2018 02:00:00 4,2 3,3 3,4 8,8 11,3 11 6 14 7 E 1019,8 10 0 0,0
13.01.2018 01:00:00 4,3 3,4 3,4 8,9 11,3 11 6 19 11 E 1020,5 9 0 0,0
13.01.2018 00:00:00 4,1 3,1 3,2 8,9 11,3 9 5 12 6 E 1021,4 6 0 0,0
12.01.2018 23:00:00 5,3 3,8 4,4 9,0 11,3 6 3 14 8 ENE 1022,1 11 0 0,0
12.01.2018 22:00:00 5,7 4,2 4,1 9,0 11,3 9 5 17 9 ENE 1022,6 10 0 0,0
12.01.2018 21:00:00 5,8 4,0 4,3 9,0 11,3 8 4 11 6 E 1023,1 7 0 0,0
12.01.2018 20:00:00 7,1 4,4 5,3 9,0 11,3 5 3 11 6 ESE 1023,3 10 0 0,0
12.01.2018 19:00:00 8,2 4,2 6,2 9,0 11,3 9 5 12 7 E 1023,3 10 0 0,0
12.01.2018 18:00:00 10,1 3,4 8,0 8,9 11,3 5 3 9 5 E 1023,3 10 3 0,0
12.01.2018 17:00:00 11,8 3,5 13,1 8,7 11,3 5 3 10 6 S 1023,5 10 60 0,0
12.01.2018 16:00:00 12,3 3,8 12,0 8,6 11,3 8 4 15 8 SE 1023,5 10 54 0,0
12.01.2018 15:00:00 11,6 4,1 12,4 8,4 11,3 5 3 13 7 SSE 1023,9 10 38 0,0
12.01.2018 14:00:00 12,4 7,3 12,8 8,3 11,3 2 1 10 6 - 1024,5 10 57 0,0
12.01.2018 13:00:00 11,2 7,5 10,8 8,2 11,4 4 2 9 5 - 1025,1 10 52 0,0
12.01.2018 12:00:00 8,7 7,1 8,4 8,2 11,4 4 2 12 7 - 1025,6 10 60 0,0
12.01.2018 11:00:00 6,0 5,9 4,1 8,2 11,4 4 2 13 7 E 1026,0 4,0 33 0,0
12.01.2018 10:00:00 3,3 3,2 2,7 8,3 11,4 0 0 7 4 N 1026,1 2,0 0 0,2
12.01.2018 09:00:00 2,7 2,6 1,4 8,4 11,4 0 0 10 5 N 1025,9 4,0 0 0,0
12.01.2018 08:00:00 2,1 2,0 -0,4 8,5 11,4 4 2 9 5 - 1025,6 4,2 0 0,0
12.01.2018 07:00:00 1,3 0,9 -0,1 8,6 11,4 0 0 4 2 N 1025,2 3,7 0 0,0
12.01.2018 06:00:00 1,9 1,6 0,4 8,7 11,4 0 0 5 3 N 1025,0 4,0 0 0,0
12.01.2018 05:00:00 1,8 1,5 0,4 8,7 11,4 4 2 7 4 S 1025,2 3,8 0 0,0
12.01.2018 04:00:00 2,3 2,0 0,5 8,8 11,4 2 1 4 2 - 1025,2 0,7 0 0,0
12.01.2018 03:00:00 2,1 1,7 0,8 8,9 11,4 2 1 4 2 SE 1025,1 1,4 0 0,0
12.01.2018 02:00:00 2,6 2,0 1,4 9,0 11,4 2 1 5 3 SSE 1024,7 1,2 0 0,0
12.01.2018 01:00:00 3,6 3,2 1,6 9,0 11,4 4 2 6 3 SSE 1024,6 8 0 0,0
12.01.2018 00:00:00 3,3 2,7 1,5 9,1 11,4 4 2 9 5 S 1024,5 2,2 0 0,0
11.01.2018 23:00:00 3,7 3,0 2,3 9,2 11,4 5 3 8 4 S 1024,1 5 0 0,0
11.01.2018 22:00:00 5,1 4,4 3,5 9,2 11,4 4 2 10 5 S 1023,7 10 0 0,0
11.01.2018 21:00:00 5,3 4,4 4,1 9,3 11,4 0 0 13 7 N 1023,1 9 0 0,0
11.01.2018 20:00:00 5,8 4,6 5,1 9,3 11,4 4 2 21 11 - 1022,4 10 0 0,0
11.01.2018 19:00:00 6,4 5,3 5,8 9,3 11,4 11 6 19 10 SW 1021,4 10 0 1,4
11.01.2018 18:00:00 6,8 5,4 6,2 9,2 11,4 5 3 31 17 SW 1020,9 3,2 0 1,8
11.01.2018 17:00:00 7,0 5,9 6,5 9,2 11,4 14 8 27 15 SSW 1019,8 3,0 0 1,0
11.01.2018 16:00:00 7,0 5,8 6,5 9,2 11,4 19 10 36 19 SSW 1019,1 4,3 22 0,0
11.01.2018 15:00:00 7,2 5,5 6,9 9,1 11,4 18 10 30 16 SSW 1018,5 7 1 0,0
11.01.2018 14:00:00 7,7 6,3 6,5 9,1 11,4 18 10 33 18 SSW 1018,0 10 11 0,2
11.01.2018 13:00:00 6,8 5,6 6,5 9,2 11,4 18 10 29 16 SSW 1018,2 10 0 0,4
11.01.2018 12:00:00 6,8 5,6 5,9 9,2 11,4 21 11 40 21 SW 1018,3 2,0 9 1,2
11.01.2018 11:00:00 6,1 5,2 5,8 9,3 11,5 11 6 33 18 S 1018,2 3,0 0 5,3
11.01.2018 10:00:00 6,4 5,3 5,8 9,3 11,5 11 6 36 19 WSW 1017,7 2,0 15 3,0
11.01.2018 09:00:00 6,3 4,8 4,9 9,4 11,5 22 12 38 20 SW 1017,1 10 0 0,0
11.01.2018 08:00:00 5,6 3,9 4,9 9,4 11,5 16 9 28 15 SSW 1016,6 10 0 0,6
11.01.2018 07:00:00 6,2 4,8 5,6 9,5 11,5 16 9 38 20 WSW 1016,4 4,2 0 3,4
11.01.2018 06:00:00 6,9 4,7 6,0 9,5 11,5 22 12 49 26 WSW 1015,6 10 0 0,6
11.01.2018 05:00:00 7,5 5,3 5,8 9,5 11,5 18 10 55 30 SW 1015,2 11 0 0,6
11.01.2018 04:00:00 7,0 5,3 5,8 9,6 11,5 5 3 16 9 SSW 1014,8 10 0 0,0
11.01.2018 03:00:00 7,2 5,2 6,2 9,6 11,5 8 4 19 10 S 1014,9 10 0 0,2
11.01.2018 02:00:00 7,9 5,5 6,7 9,6 11,5 15 8 41 22 SSW 1015,2 10 0 1,0

tt = Température de l'air
td = dewpoint
tt 5cm = Température de l'air 5cm
tt -20cm = Température de l'air -20cm
tt -100cm = Température de l'air -100cm
ff = Vitesse du vent
fx = gusts
dd = Direction du vent
ppp = reduced air pressure
vv = visibility
sd = Ensoleillement
rr = Quantités de précipitations

stations d'obs. à proximité